"Pseudo-MPEC" for P11JSYv

Created 2023 Sep 19 23:22:23 UT using Find_Orb

Click here for an explanation of pseudo-MPECs

 
 Astrometry: 
     P11JSYv* C2023 09 18_`LeXRShVu^ZNaCI*DWYMAstrometryiewxjVyL92,$j^XXn-=(5F51
     P11JSYv  C2023 09 18X*X\hW9G^(2[Zk3NKLredacted;`W+P;=ccclickJZk_8vrtOgf3F51
     P11JSYv  C2023 09 18oRH)Um=]?Cxv((lEkUIKG/w[8;0[wO4EhereYC8P1MX.0aTU,c%2F51
     P11JSYv  C2023 09 18dhPaIBW3H80RforLUeoGoPYB.ARIOb08AB#/L2HuEqhU#:0hd1]nF51
     P11JSYv  C2023 09 18DYVef:(j-If0XlND:Jie8Dh,explanation.0J?Gr'O)G/xOy+x?F51
     P11JSYv KC2023 09 19.23578123 18 51.880-02 47 46.68   ~9J6M 22.06GVNEOCPV06
     P11JSYv KC2023 09 19.23975323 18 51.556-02 47 47.00   ~9J6M 22.03GVNEOCPV06
     P11JSYv KC2023 09 19.24372723 18 51.217-02 47 47.26   ~9J6M 22.27GVNEOCPV06
     P11JSYv KC2023 09 19.24770023 18 50.879-02 47 47.65   ~9J6M 21.95GVNEOCPV06

Station data:
(F51) Pan-STARRS 1, Haleakala  (N20.707234 W156.255910)  US/Hawaii.
   Observers J. Bulger, T. Lowe, A. Schultz, M. Willman. Measurers K.
   Chambers, S. Chastel, T. de Boer, L. Denneau, J. Fairlamb, H. Flewelling,
   M. Huber, C.-C. Lin, E. Magnier, Y. Ramanjooloo, R. Wainscoat, R. Weryk.
   1.8-m Ritchey-Chrétien + CCD.
(V06) Catalina Sky Survey-Kuiper  (N32.416844 W110.732550)  US/Arizona.
   Observers T. A. Pruyne, B. M. Africano, E. J. Christensen, G. A. Farneth,
   D. C. Fuls, A. R. Gibbs, A. D. Grauer, H. Gröller, J. A. Johnson, R. A.
   Kowalski, S. M. Larson, G. J. Leonard, D. Rankin, R. L. Seaman, F. C.
   Shelly, K. W. Wierzchoś. 1.55-m reflector + CCD.

Orbital elements:  P11JSYv
   Perihelion 2022 Aug 31.11119 +/- 277 TT =  2:40:06 (JD 2459822.61119)
Epoch 2023 Sep 19.0 TT = JDT 2460206.5   Earth MOID: 0.4921      AutoNEOCP
M 149.63073196 +/- 110              (J2000 ecliptic)
n   0.38977622 +/- 0.163            Peri.  204.28669 +/- 56
a   1.85606203 +/- 0.517            Node   348.86719 +/- 0.58
e   0.2021971 +/- 0.25              Incl.   13.32326 +/- 4.0
P   2.53/923.59d           H 19.90  G  0.15   U 11.5  SR
q 1.48077161 +/- 0.215    Q 2.23135245 +/- 5.59
From 9 observations 2023 Sept. 18-19 (21.0 hr); mean residual 0".08
Residuals in arcseconds: 
230918 F51  .01+  .01-    230918 F51  .07+  .03+    230919 V06  .00   .00     
230918 F51  .08-  .02+    230918 F51  .16+  .12-    230919 V06  .01-  .08+    
230918 F51  .12-  .06+    230919 V06  .21-  .02-    230919 V06  .01-  .03+    

Ephemerides (geocentric):
Date (UTC) HH   RA             Dec           delta  r     elong  mag " sig PA
---- --------  ------------   ------------  ------ ------ -----  --- --------
2023 09 19 23  23 17 52.276   -02 48 43.51  1.1959 2.1960 172.6 22.3 7.17  89
2023 09 20 00  23 17 48.857   -02 48 47.00  1.1960 2.1960 172.6 22.3 7.77  90
2023 09 20 01  23 17 45.440   -02 48 50.48  1.1962 2.1960 172.5 22.3 8.39  90
2023 09 20 02  23 17 42.024   -02 48 53.97  1.1963 2.1961 172.5 22.3 9.03  90
2023 09 20 03  23 17 38.610   -02 48 57.45  1.1964 2.1961 172.4 22.3 9.69  90
2023 09 20 04  23 17 35.197   -02 49 00.93  1.1965 2.1961 172.4 22.3 10.4  91
2023 09 20 05  23 17 31.785   -02 49 04.40  1.1966 2.1962 172.3 22.3 11.1  91
2023 09 20 06  23 17 28.375   -02 49 07.87  1.1968 2.1962 172.2 22.3 11.8  91
2023 09 20 07  23 17 24.966   -02 49 11.34  1.1969 2.1963 172.2 22.3 12.6  91
2023 09 20 08  23 17 21.559   -02 49 14.80  1.1970 2.1963 172.1 22.3 13.3  91
2023 09 20 09  23 17 18.153   -02 49 18.26  1.1971 2.1963 172.1 22.3 14.1  91
2023 09 20 10  23 17 14.748   -02 49 21.71  1.1972 2.1964 172.0 22.3 14.9  91
2023 09 20 11  23 17 11.345   -02 49 25.17  1.1974 2.1964 172.0 22.3 15.8  91
2023 09 20 12  23 17 07.943   -02 49 28.61  1.1975 2.1964 171.9 22.4 16.6  92
2023 09 20 13  23 17 04.543   -02 49 32.06  1.1976 2.1965 171.9 22.4 17.5  92
2023 09 20 14  23 17 01.144   -02 49 35.50  1.1977 2.1965 171.8 22.4 18.4  92
2023 09 20 15  23 16 57.747   -02 49 38.94  1.1978 2.1966 171.8 22.4 19.3  92
2023 09 20 16  23 16 54.351   -02 49 42.37  1.1980 2.1966 171.7 22.4 20.2  92
2023 09 20 17  23 16 50.957   -02 49 45.80  1.1981 2.1966 171.7 22.4 21.2  92
2023 09 20 18  23 16 47.564   -02 49 49.22  1.1982 2.1967 171.6 22.4 22.2  92
2023 09 20 19  23 16 44.172   -02 49 52.65  1.1983 2.1967 171.5 22.4 23.2  92
2023 09 20 20  23 16 40.782   -02 49 56.06  1.1985 2.1967 171.5 22.4 24.2  92
2023 09 20 21  23 16 37.394   -02 49 59.48  1.1986 2.1968 171.4 22.4 25.2  92
2023 09 20 22  23 16 34.007   -02 50 02.89  1.1987 2.1968 171.4 22.4 26.3  92
2023 09 20 23  23 16 30.621   -02 50 06.29  1.1988 2.1969 171.3 22.4 27.4  92
2023 09 21 00  23 16 27.237   -02 50 09.70  1.1990 2.1969 171.3 22.4 28.5  92
2023 09 21 01  23 16 23.855   -02 50 13.09  1.1991 2.1969 171.2 22.4 29.6  92
2023 09 21 02  23 16 20.474   -02 50 16.49  1.1992 2.1970 171.2 22.4 30.7  92
2023 09 21 03  23 16 17.095   -02 50 19.88  1.1994 2.1970 171.1 22.4 31.9  92
2023 09 21 04  23 16 13.717   -02 50 23.26  1.1995 2.1970 171.1 22.4 33.1  92
2023 09 21 05  23 16 10.341   -02 50 26.64  1.1996 2.1971 171.0 22.4 34.3  92
2023 09 21 06  23 16 06.966   -02 50 30.02  1.1998 2.1971 171.0 22.4 35.5  92
2023 09 21 07  23 16 03.593   -02 50 33.40  1.1999 2.1972 170.9 22.4 36.8  92
2023 09 21 08  23 16 00.222   -02 50 36.76  1.2000 2.1972 170.8 22.4 38.0  92
2023 09 21 09  23 15 56.852   -02 50 40.13  1.2001 2.1972 170.8 22.4 39.3  92
2023 09 21 10  23 15 53.484   -02 50 43.49  1.2003 2.1973 170.7 22.4 40.6  93
2023 09 21 11  23 15 50.117   -02 50 46.85  1.2004 2.1973 170.7 22.4 42.0  93
2023 09 21 12  23 15 46.752   -02 50 50.20  1.2005 2.1973 170.6 22.4 43.3  93
2023 09 21 13  23 15 43.389   -02 50 53.55  1.2007 2.1974 170.6 22.4 44.7  93
2023 09 21 14  23 15 40.027   -02 50 56.89  1.2008 2.1974 170.5 22.4 46.1  93
2023 09 21 15  23 15 36.667   -02 51 00.23  1.2009 2.1975 170.5 22.4 47.5  93
2023 09 21 16  23 15 33.308   -02 51 03.56  1.2011 2.1975 170.4 22.4 48.9  93
2023 09 21 17  23 15 29.951   -02 51 06.89  1.2012 2.1975 170.4 22.4 50.4  93
2023 09 21 18  23 15 26.596   -02 51 10.22  1.2014 2.1976 170.3 22.4 51.8  93
2023 09 21 19  23 15 23.242   -02 51 13.54  1.2015 2.1976 170.3 22.4 53.3  93
2023 09 21 20  23 15 19.890   -02 51 16.86  1.2016 2.1976 170.2 22.4 54.9  93
2023 09 21 21  23 15 16.540   -02 51 20.17  1.2018 2.1977 170.1 22.4 56.4  93
2023 09 21 22  23 15 13.191   -02 51 23.48  1.2019 2.1977 170.1 22.4 57.9  93